sat.trackr.live / text

‹ back to catalog

STARLINK-37251

NORAD 68514 · 2026-068G

PAYLOAD ACTIVE UNKNOWN

§ Identity

Operator
Country
US
Launch date
2026-03-30
Launch site
AFETR
Launch vehicle
Mass (kg)
RCS (m²)

Purposes: comms

External: N2YO · Heavens-Above · Gunter

§ Orbital elements

Epoch: 2026-09-19T20:18:58.191840Z

Period
93.85 min
Inclination
53.1606°
Eccentricity
0.0000943
Mean motion
15.34406744 rev/d
Perigee alt
462.0 km
Apogee alt
463.3 km
Semi-major
6,840.8 km
B*
4.2182e-4
RAAN
303.0176°
Arg perigee
79.4789°
Mean anomaly
280.6319°
Rev number
2,673

§ Raw data

STARLINK-372511 68514U 26068G   26262.84650685  .00013905  00000+0  42182-3 0  99932 68514  53.1606 303.0176 0000943  79.4789 280.6319 15.34406744 26732

JSON: /api/v1/satellites/68514 · /tle

For live sub-satellite position, see the globe view (requires WebGL).

§ Visibility from observer

Set your observer location to see the next 7 days of passes ≥ 10°. The values pass through the URL so the page stays shareable.

No JS? Fill the form by hand. The geolocation button needs JavaScript.